Weather History for K1F0 - February, 2012

Change the Weather History Date:

Thursday, February 16, 2012

  Actual Average (KADM) Record (KADM)
Temperature  
Mean Temperature 48 °F -  
Max Temperature 55 °F 55 °F 82 °F (2006)
Min Temperature 42 °F 37 °F 10 °F (2007)
Degree Days  
Heating Degree Days 16    
Moisture  
Dew Point 38 °F    
Average Humidity 71    
Maximum Humidity 87    
Minimum Humidity 54    
Precipitation  
Precipitation 0.00 in - - ()
Sea Level Pressure  
Sea Level Pressure 30.21 in    
Wind  
Wind Speed 5 mph (NE)    
Max Wind Speed 16 mph    
Max Gust Speed 17 mph    
Visibility 10 miles    
Events      
Averages and records for this station are not official NWS values.
T = Trace of Precipitation, MM = Missing Value Source: NWS Daily Summary

Daily Weather History Graph

Daily Weather History Graph

Search for Another Location

Airport or City:

Trip Planner

Search our weather history database for the weather conditions in past years. The results will help you decide how hot, cold, wet, or windy it might be!

Date:

Astronomy

Feb. 16, 2012 Rise Set
Actual Time 7:12 AM CST 6:12 PM CST
Civil Twilight 6:47 AM CST 6:38 PM CST
Nautical Twilight 6:17 AM CST 7:07 PM CST
Astronomical Twilight 5:48 AM CST 7:36 PM CST
Moon 3:00 AM CST (2/16) 1:14 PM CST (2/16)
Length of Visible Light 11h 51m
Length of Day
11h 00m
Waning Crescent, 28% of the Moon is Illuminated
Feb 16
Waning Crescent
Feb 21
New
Feb 29
First Quarter
Mar 8
Full
Mar 14
Last Quarter

Hourly Weather History & Observations

Time (CST) Temp. Windchill Dew Point Humidity Pressure Visibility Wind Dir Wind Speed Gust Speed Precip Events Conditions
12:15 AM 46.4 °F 44.3 °F 39.2 °F 76% 30.10 in 10.0 mi NNW 4.6 mph - N/A   Clear
12:35 AM 46.4 °F - 39.2 °F 76% 30.11 in 10.0 mi Calm Calm - N/A   Clear
12:55 AM 44.6 °F - 39.2 °F 81% 30.12 in 10.0 mi Calm Calm - N/A   Clear
1:15 AM 44.6 °F 43.1 °F 39.2 °F 81% 30.12 in 10.0 mi NNW 3.5 mph - N/A   Clear
1:35 AM 44.6 °F 43.1 °F 39.2 °F 81% 30.13 in 10.0 mi NNW 3.5 mph - N/A   Clear
1:55 AM 44.6 °F - 39.2 °F 81% 30.14 in 10.0 mi Calm Calm - N/A   Clear
2:15 AM 42.8 °F 41.1 °F 39.2 °F 87% 30.15 in 10.0 mi NNW 3.5 mph - N/A   Clear
2:35 AM 42.8 °F 40.1 °F 39.2 °F 87% 30.15 in 10.0 mi North 4.6 mph - N/A   Clear
2:55 AM 42.8 °F 38.6 °F 37.4 °F 81% 30.15 in 7.0 mi North 6.9 mph - N/A   Clear
3:15 AM 42.8 °F - 37.4 °F 81% 30.15 in 7.0 mi Calm Calm - N/A   Clear
3:35 AM 42.8 °F - 37.4 °F 81% 30.17 in 7.0 mi Calm Calm - N/A   Mostly Cloudy
3:55 AM 42.8 °F 38.6 °F 37.4 °F 81% 30.17 in 10.0 mi NNE 6.9 mph - N/A   Overcast
4:15 AM 42.8 °F 39.3 °F 37.4 °F 81% 30.18 in 10.0 mi NNE 5.8 mph - N/A   Overcast
4:35 AM 42.8 °F 36.6 °F 37.4 °F 81% 30.17 in 10.0 mi NNE 11.5 mph 17.3 mph N/A   Overcast
4:55 AM 42.8 °F 35.1 °F 37.4 °F 81% 30.19 in 10.0 mi NNE 16.1 mph - N/A   Overcast
5:15 AM 42.8 °F 36.6 °F 37.4 °F 81% 30.19 in 10.0 mi NNE 11.5 mph 17.3 mph N/A   Overcast
5:35 AM 42.8 °F 36.6 °F 37.4 °F 81% 30.19 in 10.0 mi NE 11.5 mph 16.1 mph N/A   Overcast
5:55 AM 42.8 °F 36.6 °F 37.4 °F 81% 30.20 in 10.0 mi NE 11.5 mph - N/A   Overcast
6:15 AM 42.8 °F 37.0 °F 37.4 °F 81% 30.21 in 10.0 mi NE 10.4 mph - N/A   Overcast
6:35 AM 42.8 °F 37.0 °F 37.4 °F 81% 30.23 in 10.0 mi NE 10.4 mph - N/A   Overcast
6:55 AM 42.8 °F 38.0 °F 37.4 °F 81% 30.24 in 10.0 mi NE 8.1 mph - N/A   Overcast
7:15 AM 42.8 °F 38.6 °F 37.4 °F 81% 30.25 in 10.0 mi NNE 6.9 mph - N/A   Overcast
7:35 AM 42.8 °F 38.6 °F 37.4 °F 81% 30.25 in 10.0 mi NE 6.9 mph - N/A   Overcast
7:55 AM 42.8 °F 39.3 °F 37.4 °F 81% 30.26 in 10.0 mi NE 5.8 mph - N/A   Overcast
8:15 AM 42.8 °F 39.3 °F 37.4 °F 81% 30.27 in 10.0 mi NE 5.8 mph - N/A   Overcast
8:35 AM 44.6 °F 39.7 °F 37.4 °F 76% 30.28 in 10.0 mi NE 9.2 mph 16.1 mph N/A   Overcast
8:55 AM 44.6 °F 40.2 °F 37.4 °F 76% 30.30 in 10.0 mi ENE 8.1 mph - N/A   Overcast
9:15 AM 44.6 °F 40.2 °F 37.4 °F 76% 30.30 in 10.0 mi ENE 8.1 mph - N/A   Overcast
9:35 AM 44.6 °F 39.7 °F 37.4 °F 76% 30.28 in 10.0 mi ENE 9.2 mph - N/A   Overcast
9:55 AM 44.6 °F 39.7 °F 37.4 °F 76% 30.30 in 10.0 mi NE 9.2 mph - N/A   Overcast
10:15 AM 44.6 °F 39.7 °F 37.4 °F 76% 30.29 in 10.0 mi NE 9.2 mph - N/A   Overcast
10:35 AM 44.6 °F 41.4 °F 37.4 °F 76% 30.30 in 10.0 mi ENE 5.8 mph - N/A   Overcast
10:55 AM 46.4 °F 42.9 °F 37.4 °F 71% 30.29 in 10.0 mi ENE 6.9 mph - N/A   Overcast
11:15 AM 46.4 °F 42.4 °F 37.4 °F 71% 30.29 in 10.0 mi East 8.1 mph - N/A   Overcast
11:35 AM 50.0 °F - 37.4 °F 62% 30.28 in 10.0 mi NE 10.4 mph - N/A   Scattered Clouds
11:55 AM 50.0 °F - 37.4 °F 62% 30.28 in 10.0 mi East 6.9 mph - N/A   Scattered Clouds
12:15 PM 51.8 °F - 37.4 °F 58% 30.27 in 10.0 mi East 3.5 mph - N/A   Mostly Cloudy
12:35 PM 51.8 °F - 37.4 °F 58% 30.27 in 10.0 mi NNE 3.5 mph - N/A   Mostly Cloudy
12:55 PM 51.8 °F - 39.2 °F 62% 30.26 in 10.0 mi ENE 4.6 mph - N/A   Scattered Clouds
1:15 PM 53.6 °F - 39.2 °F 58% 30.25 in 10.0 mi ESE 4.6 mph - N/A   Scattered Clouds
1:35 PM 53.6 °F - 39.2 °F 58% 30.23 in 10.0 mi East 6.9 mph - N/A   Clear
1:55 PM 53.6 °F - 39.2 °F 58% 30.23 in 10.0 mi ENE 4.6 mph - N/A   Clear
2:15 PM 55.4 °F - 41.0 °F 58% 30.22 in 10.0 mi East 6.9 mph - N/A   Clear
2:35 PM 55.4 °F - 39.2 °F 54% 30.22 in 10.0 mi East 4.6 mph - N/A   Clear
2:55 PM 55.4 °F - 39.2 °F 54% 30.21 in 10.0 mi ESE 4.6 mph - N/A   Clear
3:15 PM 55.4 °F - 41.0 °F 58% 30.20 in 10.0 mi ENE 5.8 mph - N/A   Clear
3:35 PM 55.4 °F - 41.0 °F 58% 30.19 in 10.0 mi East 3.5 mph - N/A   Clear
3:55 PM 55.4 °F - 39.2 °F 54% 30.19 in 10.0 mi ENE 3.5 mph - N/A   Clear
4:15 PM 55.4 °F - 39.2 °F 54% 30.19 in 10.0 mi East 4.6 mph - N/A   Clear
4:35 PM 55.4 °F - 39.2 °F 54% 30.19 in 10.0 mi ENE 4.6 mph - N/A   Clear
4:55 PM 55.4 °F - 39.2 °F 54% 30.19 in 10.0 mi ENE 4.6 mph - N/A   Clear
5:15 PM 55.4 °F - 39.2 °F 54% 30.18 in 10.0 mi East 5.8 mph - N/A   Clear
5:35 PM 53.6 °F - 39.2 °F 58% 30.18 in 10.0 mi East 3.5 mph - N/A   Clear
5:55 PM 53.6 °F - 41.0 °F 62% 30.18 in 10.0 mi NE 4.6 mph - N/A   Clear
6:15 PM 53.6 °F - 39.2 °F 58% 30.18 in 10.0 mi NE 4.6 mph - N/A   Clear
6:35 PM 51.8 °F - 41.0 °F 67% 30.19 in 10.0 mi NE 5.8 mph - N/A   Clear
6:55 PM 51.8 °F - 39.2 °F 62% 30.19 in 10.0 mi ENE 6.9 mph - N/A   Clear
7:15 PM 51.8 °F - 39.2 °F 62% 30.19 in 10.0 mi ENE 4.6 mph - N/A   Clear
7:35 PM 51.8 °F - 39.2 °F 62% 30.19 in 10.0 mi ENE 5.8 mph - N/A   Clear
8:35 PM 50.0 °F - 41.0 °F 71% 30.19 in 10.0 mi Calm Calm - N/A   Scattered Clouds
8:55 PM 50.0 °F - 41.0 °F 71% 30.20 in 10.0 mi Calm Calm - N/A   Mostly Cloudy
9:15 PM 48.2 °F - 41.0 °F 76% 30.22 in 10.0 mi Calm Calm - N/A   Scattered Clouds
9:35 PM 48.2 °F - 41.0 °F 76% 30.21 in 10.0 mi ESE 3.5 mph - N/A   Scattered Clouds
9:55 PM 46.4 °F - 41.0 °F 81% 30.22 in 10.0 mi Calm Calm - N/A   Mostly Cloudy
10:15 PM 46.4 °F - 41.0 °F 81% 30.22 in 10.0 mi Calm Calm - N/A   Overcast
10:35 PM 46.4 °F - 41.0 °F 81% 30.21 in 10.0 mi Calm Calm - N/A   Scattered Clouds
10:55 PM 44.6 °F - 41.0 °F 87% 30.20 in 10.0 mi Calm Calm - N/A   Scattered Clouds
11:15 PM 44.6 °F - 41.0 °F 87% 30.19 in 10.0 mi Calm Calm - N/A   Scattered Clouds
11:35 PM 44.6 °F - 39.2 °F 81% 30.20 in 7.0 mi Calm Calm - N/A   Clear
11:55 PM 42.8 °F - 39.2 °F 87% 30.18 in 7.0 mi Calm Calm - N/A   Clear